Location: Newark
(48.1236°N, 0.7169°W)
Time: 02:19:41
(UTC+00:00)

Envisat - Pass Details

Date: 22 November 2019
Orbit: 764 x 766 km, 98.1° (Epoch: 12 December)

Event Time Altitude Azimuth Distance (km) Brightness Sun altitude
Rises 18:44:37 0° 191° (S) 3,220 6.4 -24.0°
Reaches altitude 10° 18:47:08 10° 201° (SSW) 2,298 5.7 -24.5°
Maximum altitude 18:51:40 33° 265° (W) 1,281 4.7 -25.2°
Drops below altitude 10° 18:56:15 10° 329° (NNW) 2,313 5.8 -26.0°
Sets 18:58:48 0° 339° (NNW) 3,244 6.5 -26.4°
